FENGYUN 1C DEB, 41008

Orbit data source: Space-Track

FENGYUN 1C DEB, 41008 is space debris in SSO originally from a launch on Mon, 10 May 1999 UTC launched from the Taiyaun Space Center, China (TSC). Fengyun 1C debris stems from the Chinese weather satellite Fengyun-1C, which was intentionally destroyed by a Chinese anti-satellite missile in 2007. This event dramatically increased the amount of space debris, with thousands of trackable fragments posing hazards to satellites and human spaceflight. The Fengyun 1C debris cloud has become a focal point in discussions about space sustainability and the need for international regulations to prevent the creation of new debris.

Loading next visibility...
Identifier
41008, 1999-025EXN
Orbit
SSO
Country
Flag of CNCN / PRC
Related business
Manufacturer
Unknown
Mission
Spacecraft
Bus & Motor
Unknown
Mass
Unknown
Launch date (UTC)
1999-05-10 (26 years ago)
Launch vehicle
Unknown
Launch site
Taiyaun Space Center, China (TSC)
Object type
Payload
Rocket body
Debris
Shape & HBR
Unknown shape, 0.1 m
Radar Cross Section
Small (<0.1 m²)

Expand to show TLE details & history
Last TLE update: 3 weeks ago

TLE from 3 weeks ago
0 FENGYUN 1C DEB
1 41008U 99025EXN 25266.70341360  .00000778  00000-0  46724-3 0  9991
2 41008  99.3094  62.2729 0503408   2.1567 358.1589 13.60701580553562
Epoch: 2025-09-23T16:52Z
TLE epoch observation values (Epoch: 2025-09-23T16:52:54.935Z)
Latitude
-0.00007°
Longitude
166.25458°
Altitude
663.019 km
Speed
7.713 km/s
True Right ascension
04h 09m 05s
True Declination
0° 00' 00"
Sunlit
Object was in full shadow at epoch
Visualization orbit readout
Latitude
Unknown
Longitude
Unknown
Altitude
Unknown
Speed
Unknown
Apparent Right ascension
Unknown
Apparent Declination
Unknown
Sunlit
N/A
Visualization observer readout
Local Sidereal Time
21:06:16
Azimuth
Unknown
Elevation
Unknown
Doppler factor
Unknown
Orbital elements
Apogee altitude
1,403.352 km
Perigee altitude
657.449 km
Semi-major axis
7,408.537 km
Eccentricity
0.05034
Inclination
99.3094°
RAAN
62.2729°
Arg. of periapsis
2.1567°
True anomaly
357.96117°
Mean anomaly
358.1589°
Eccentric anomaly
358.06132°
Mean motion
3.40365 °/min
Orbital period
105.77 mins
BSTAR
0.00046724
Loading maneuver chart data...
Computing Atmospheric mass density...

Documentation

Showing up to 5 results
|